timestamp,surface_pressure_avg,surface_temp_avg,battery_voltage,lat,long
2019-06-17 00:00:00+00:00,364.348,7.68,13.13,47.84626,-54.09684
2019-06-17 00:10:00+00:00,356.8313,8.09,12.97,47.84626,-54.09684
2019-06-17 00:20:00+00:00,352.8629,8.0,12.97,47.84626,-54.09684
2019-06-17 00:30:00+00:00,349.2679,7.98,12.97,47.84626,-54.09684
2019-06-17 00:40:00+00:00,343.088,8.17,12.97,47.84626,-54.09684
2019-06-17 00:50:00+00:00,338.2796,8.2,12.97,47.84626,-54.09684
2019-06-17 01:00:00+00:00,330.473,8.0,12.97,47.84626,-54.09684
2019-06-17 01:10:00+00:00,323.5513,8.02,12.81,47.84626,-54.09684
2019-06-17 01:20:00+00:00,318.2612,8.1,12.97,47.84626,-54.09684
2019-06-17 01:30:00+00:00,309.993,8.16,12.97,47.84626,-54.09684
2019-06-17 01:40:00+00:00,297.6113,8.44,12.97,47.84626,-54.09684
2019-06-17 01:50:00+00:00,290.7664,8.55,12.97,47.84626,-54.09684
2019-06-17 02:00:00+00:00,285.1614,8.86,12.89,47.84626,-54.09684
2019-06-17 02:10:00+00:00,274.4415,9.24,12.81,47.84626,-54.09684
2019-06-17 02:20:00+00:00,262.7647,9.4,12.89,47.84626,-54.09684
2019-06-17 02:30:00+00:00,255.6747,9.61,12.89,47.84626,-54.09684
2019-06-17 02:40:00+00:00,246.9181,9.82,12.97,47.84626,-54.09684
2019-06-17 02:50:00+00:00,238.9898,9.9,12.97,47.84626,-54.09684
2019-06-17 03:00:00+00:00,230.5431,9.8,12.89,47.84626,-54.09684
2019-06-17 03:10:00+00:00,225.5048,9.78,12.81,47.84626,-54.09684
2019-06-17 03:20:00+00:00,219.9931,9.73,12.89,47.84626,-54.09684
2019-06-17 03:30:00+00:00,213.1465,9.8,12.89,47.84626,-54.09684
2019-06-17 03:40:00+00:00,203.8398,9.87,12.89,47.84626,-54.09684
2019-06-17 03:50:00+00:00,199.7514,9.9,12.89,47.84626,-54.09684
2019-06-17 04:00:00+00:00,195.9064,9.9,12.81,47.84626,-54.09684
2019-06-17 04:10:00+00:00,190.1865,9.8,12.81,47.84626,-54.09684
2019-06-17 04:20:00+00:00,189.1915,9.79,12.89,47.84626,-54.09684
2019-06-17 04:30:00+00:00,191.0815,9.6,12.89,47.84626,-54.09684
2019-06-17 04:40:00+00:00,186.5581,9.64,12.89,47.84626,-54.09684
2019-06-17 04:50:00+00:00,178.9115,9.72,12.89,47.84626,-54.09684
2019-06-17 05:00:00+00:00,176.6315,9.7,12.81,47.84626,-54.09684
2019-06-17 05:10:00+00:00,178.1497,9.6,12.81,47.84626,-54.09684
2019-06-17 05:20:00+00:00,178.3848,9.6,12.89,47.84626,-54.09684
2019-06-17 05:30:00+00:00,175.1298,9.6,12.89,47.84626,-54.09684
2019-06-17 05:40:00+00:00,173.7381,9.55,12.89,47.84626,-54.09684
2019-06-17 05:50:00+00:00,177.4531,9.57,12.89,47.84626,-54.09684
2019-06-17 06:00:00+00:00,181.4315,9.6,12.81,47.84626,-54.09684
2019-06-17 06:10:00+00:00,182.8332,9.69,12.73,47.84626,-54.09684
2019-06-17 06:20:00+00:00,185.2448,9.74,12.81,47.84626,-54.09684
2019-06-17 06:30:00+00:00,189.0681,9.7,12.81,47.84626,-54.09684
2019-06-17 06:40:00+00:00,191.7448,9.79,12.89,47.84626,-54.09684
2019-06-17 06:50:00+00:00,196.8931,9.81,12.89,47.84626,-54.09684
2019-06-17 07:00:00+00:00,199.4931,9.89,12.81,47.84626,-54.09684
2019-06-17 07:10:00+00:00,200.5714,9.88,12.73,47.84626,-54.09684
2019-06-17 07:20:00+00:00,204.4565,9.89,12.81,47.84626,-54.09684
2019-06-17 07:30:00+00:00,207.8981,9.89,12.81,47.84626,-54.09684
2019-06-17 07:40:00+00:00,211.7798,9.8,12.81,47.84626,-54.09684
2019-06-17 07:50:00+00:00,216.6048,9.8,12.81,47.84626,-54.09684
2019-06-17 08:00:00+00:00,220.6248,9.77,12.81,47.84626,-54.09684
2019-06-17 08:10:00+00:00,224.2097,9.7,12.73,47.84626,-54.09684
2019-06-17 08:20:00+00:00,226.0448,9.6,12.81,47.84626,-54.09684
2019-06-17 08:30:00+00:00,233.3681,9.6,12.81,47.84626,-54.09684
2019-06-17 08:40:00+00:00,242.9864,9.6,12.81,47.84626,-54.09684
2019-06-17 08:50:00+00:00,248.9998,9.6,12.81,47.84626,-54.09684
2019-06-17 09:00:00+00:00,252.3764,9.7,12.73,47.84626,-54.09684
2019-06-17 09:10:00+00:00,259.6381,9.69,12.73,47.84626,-54.09684
2019-06-17 09:20:00+00:00,268.3881,9.67,12.81,47.84626,-54.09684
2019-06-17 09:30:00+00:00,274.8414,9.7,12.81,47.84626,-54.09684
2019-06-17 09:40:00+00:00,282.1814,9.6,12.81,47.84626,-54.09684
2019-06-17 09:50:00+00:00,289.5014,9.49,12.81,47.84626,-54.09684
2019-06-17 10:00:00+00:00,294.3279,9.07,12.81,47.84626,-54.09684
2019-06-17 10:10:00+00:00,301.2114,8.49,12.73,47.84626,-54.09684
2019-06-17 10:20:00+00:00,312.4496,8.38,12.81,47.84626,-54.09684
2019-06-17 10:30:00+00:00,315.338,8.78,12.89,47.84626,-54.09684
2019-06-17 10:40:00+00:00,315.4797,8.7,12.97,47.84626,-54.09684
2019-06-17 10:50:00+00:00,322.5563,8.4,12.97,47.84626,-54.09684
2019-06-17 11:00:00+00:00,328.9763,8.59,12.97,47.84626,-54.09684
2019-06-17 11:10:00+00:00,326.4446,8.6,12.89,47.84626,-54.09684
2019-06-17 11:20:00+00:00,329.1113,8.46,12.97,47.84626,-54.09684
2019-06-17 11:30:00+00:00,331.4163,8.38,12.97,47.84626,-54.09684
2019-06-17 11:40:00+00:00,328.828,8.4,13.05,47.84626,-54.09684
2019-06-17 11:50:00+00:00,323.7479,8.52,13.05,47.84626,-54.09684
2019-06-17 12:00:00+00:00,325.5247,8.6,13.05,47.84626,-54.09684
2019-06-17 12:10:00+00:00,327.558,8.57,12.97,47.84626,-54.09684
2019-06-17 12:20:00+00:00,322.6331,8.8,13.05,47.84626,-54.09684
2019-06-17 12:30:00+00:00,318.303,8.6,13.05,47.84626,-54.09684
2019-06-17 12:40:00+00:00,318.9846,8.5,13.21,47.84626,-54.09684
2019-06-17 12:50:00+00:00,318.793,8.5,13.29,47.84626,-54.09684
2019-06-17 13:00:00+00:00,313.2364,8.6,13.29,47.84626,-54.09684
2019-06-17 13:10:00+00:00,310.0613,8.58,13.21,47.84626,-54.09684
2019-06-17 13:20:00+00:00,307.7131,8.67,13.29,47.84626,-54.09684
2019-06-17 13:30:00+00:00,300.2647,8.7,13.29,47.84626,-54.09684
2019-06-17 13:40:00+00:00,294.863,8.49,13.37,47.84626,-54.09684
2019-06-17 13:50:00+00:00,292.8314,8.46,13.37,47.84626,-54.09684
2019-06-17 14:00:00+00:00,285.713,8.66,13.37,47.84626,-54.09684
2019-06-17 14:10:00+00:00,276.6364,8.9,13.29,47.84626,-54.09684
2019-06-17 14:20:00+00:00,272.1964,8.9,13.37,47.84626,-54.09684
2019-06-17 14:30:00+00:00,267.1847,8.85,13.44,47.84626,-54.09684
2019-06-17 14:40:00+00:00,258.1248,8.85,13.53,47.84626,-54.09684
2019-06-17 14:50:00+00:00,248.0847,8.97,13.53,47.84626,-54.09684
2019-06-17 15:00:00+00:00,239.3064,9.02,13.44,47.84626,-54.09684
2019-06-17 15:10:00+00:00,229.8448,9.25,13.37,47.84626,-54.09684
2019-06-17 15:20:00+00:00,220.7481,9.3,13.44,47.84626,-54.09684
2019-06-17 15:30:00+00:00,214.4998,9.21,13.44,47.84626,-54.09684
2019-06-17 15:40:00+00:00,207.0648,9.3,13.53,47.84626,-54.09684
2019-06-17 15:50:00+00:00,195.1815,9.4,13.53,47.84626,-54.09684
2019-06-17 16:00:00+00:00,187.9681,9.4,13.53,47.84626,-54.09684
2019-06-17 16:10:00+00:00,187.8448,9.4,13.44,47.84626,-54.09684
2019-06-17 16:20:00+00:00,183.7165,9.3,13.53,47.84626,-54.09684
2019-06-17 16:30:00+00:00,177.7082,9.2,13.6,47.84626,-54.09684
2019-06-17 16:40:00+00:00,183.4332,9.0,13.68,47.84626,-54.09684
2019-06-17 16:50:00+00:00,183.6115,8.88,13.68,47.84626,-54.09684
2019-06-17 17:00:00+00:00,170.2348,9.14,13.6,47.84626,-54.09684
2019-06-17 17:10:00+00:00,168.5331,9.1,13.6,47.84626,-54.09684
2019-06-17 17:20:00+00:00,173.0581,9.1,13.68,47.84626,-54.09684
2019-06-17 17:30:00+00:00,166.1765,9.3,13.68,47.84626,-54.09684
2019-06-17 17:40:00+00:00,163.0665,9.54,13.76,47.84626,-54.09684
2019-06-17 17:50:00+00:00,173.6465,9.5,13.92,47.84626,-54.09684
2019-06-17 18:00:00+00:00,178.7214,9.31,13.92,47.84626,-54.09684
2019-06-17 18:10:00+00:00,178.3081,9.42,13.84,47.84626,-54.09684
2019-06-17 18:20:00+00:00,185.0331,9.3,13.92,47.84626,-54.09684
2019-06-17 18:30:00+00:00,194.5865,9.1,14.0,47.84626,-54.09684
2019-06-17 18:40:00+00:00,192.8465,9.16,14.0,47.84626,-54.09684
2019-06-17 18:50:00+00:00,192.0548,9.31,14.08,47.84626,-54.09684
2019-06-17 19:00:00+00:00,201.3464,9.15,14.0,47.84626,-54.09684
2019-06-17 19:10:00+00:00,206.9482,9.04,13.92,47.84626,-54.09684
2019-06-17 19:20:00+00:00,207.4565,9.28,14.0,47.84626,-54.09684
2019-06-17 19:30:00+00:00,211.3765,9.3,14.0,47.84626,-54.09684
2019-06-17 19:40:00+00:00,219.4098,9.1,14.08,47.84626,-54.09684
2019-06-17 19:50:00+00:00,224.3732,8.97,14.08,47.84626,-54.09684
2019-06-17 20:00:00+00:00,228.3781,8.47,14.0,47.84626,-54.09684
2019-06-17 20:10:00+00:00,235.9114,8.26,13.92,47.84626,-54.09684
2019-06-17 20:20:00+00:00,244.3714,7.7,14.0,47.84626,-54.09684
2019-06-17 20:30:00+00:00,246.8898,7.66,14.0,47.84626,-54.09684
2019-06-17 20:40:00+00:00,252.0181,7.5,14.0,47.84626,-54.09684
2019-06-17 20:50:00+00:00,260.4214,7.3,14.0,47.84626,-54.09684
2019-06-17 21:00:00+00:00,267.6664,7.4,13.92,47.84626,-54.09684
2019-06-17 21:10:00+00:00,274.8714,7.75,13.76,47.84626,-54.09684
2019-06-17 21:20:00+00:00,284.923,8.09,13.76,47.84626,-54.09684
2019-06-17 21:30:00+00:00,293.588,8.2,13.76,47.84626,-54.09684
2019-06-17 21:40:00+00:00,301.4314,8.48,13.76,47.84626,-54.09684
2019-06-17 21:50:00+00:00,311.513,7.58,13.68,47.84626,-54.09684
2019-06-17 22:00:00+00:00,322.3414,6.99,13.6,47.84626,-54.09684
2019-06-17 22:10:00+00:00,327.1614,7.39,13.44,47.84626,-54.09684
2019-06-17 22:20:00+00:00,332.8413,7.1,13.44,47.84626,-54.09684
2019-06-17 22:30:00+00:00,342.443,6.9,13.37,47.84626,-54.09684
2019-06-17 22:40:00+00:00,347.2713,6.86,13.37,47.84626,-54.09684
2019-06-17 22:50:00+00:00,348.7346,6.89,13.29,47.84626,-54.09684
2019-06-17 23:00:00+00:00,352.0929,6.9,13.21,47.84626,-54.09684
2019-06-17 23:10:00+00:00,359.8147,6.95,13.05,47.84626,-54.09684
2019-06-17 23:20:00+00:00,360.5329,7.09,13.05,47.84626,-54.09684
2019-06-17 23:30:00+00:00,358.0779,7.2,13.05,47.84626,-54.09684
2019-06-17 23:40:00+00:00,364.4163,7.0,13.05,47.84626,-54.09684
2019-06-17 23:50:00+00:00,370.5795,6.8,13.05,47.84626,-54.09684
